Home > Weather > Mesquite > Past weeks

Flag for USA Past Weather in Mesquite, Texas, USA — Yesterday and Last 2 Weeks

Now
89 °F

Sunny.


Feels Like: 93 °F
Forecast: 79 / 97 °F
Wind: 6 mph from Southeast

Location: Mesquite Metro Airport

Current Time: Jul 30, 2016 at 8:51:17 PM

Latest Report: Jul 30, 2016 at 8:15 PM


Visibility: 10 mi

Pressure: 29.91 "Hg

Humidity: 50%

Dew Point: 68 °F

Location of MesquiteLocation

Past Weather in Mesquite — Graph

°F

Mesquite Temperature Yesterday

Maximum temperature yesterday: 93 °F (at 4:50 PM)
Minimum temperature yesterday: 73 °F (at 5:55 AM)
Average temperature yesterday: 80 °F

High & Low Weather Summary for the Past Weeks

 TemperatureHumidityPressure
High99 °F (Jul 22, 3:50 PM)100% (Jul 18, 6:50 AM)30.22 "Hg (Jul 18, 6:50 AM)
Low70 °F (Jul 19, 10:50 AM)33% (Jul 22, 3:50 PM)29.87 "Hg (Jul 23, 6:50 PM)
Average82 °F75%30.00 "Hg
* Reported Jul 15 6:50 PM — Jul 30 6:50 PM, Mesquite, Weather by CustomWeather, © 2016

Note: Actual official high and low records may vary slightly from our data, if they occured in-between our weather recording intervals... More about our weather records

Advertising

Mesquite Weather History for the Previous 24 Hours

Scroll right to see more
 ConditionsComfort  
Time TempWeatherWind HumidityBarometerVisibility
6:50 PM
Sat, Jul 30
93 °FSunny.9 mph39%29.91 "Hg10 mi
5:50 PM95 °FPassing clouds.8 mph36%29.91 "Hg10 mi
4:50 PM97 °FPassing clouds.8 mph34%29.93 "Hg10 mi
3:50 PM97 °FPassing clouds.8 mph34%29.94 "Hg10 mi
2:50 PM97 °FScattered clouds.9 mph34%29.96 "Hg10 mi
1:50 PM95 °FScattered clouds.8 mph39%29.98 "Hg10 mi
12:50 PM93 °FPassing clouds.9 mph39%30.00 "Hg10 mi
11:50 AM91 °FHot.8 mph44%30.01 "Hg10 mi
10:50 AM90 °FSunny.6 mph55%30.01 "Hg10 mi
9:50 AM86 °FSunny.9 mph66%30.02 "Hg10 mi
8:50 AM82 °FSunny.8 mph74%30.02 "Hg10 mi
7:50 AM79 °FSunny.No wind84%30.01 "Hg10 mi
6:50 AM75 °FClear.3 mph94%30.00 "Hg10 mi
6:15 AM75 °FClear.No wind97%29.99 "Hg10 mi
5:55 AM75 °FClear.No wind98%29.98 "Hg10 mi
5:35 AM75 °FClear.5 mph97%29.98 "Hg10 mi
5:15 AM75 °FClear.5 mph96%29.97 "Hg10 mi
5:00 AM75 °FClear.5 mph97%29.97 "Hg10 mi
4:35 AM76 °FClear.5 mph94%29.97 "Hg10 mi
4:15 AM77 °FClear.No wind93%29.98 "Hg10 mi
3:55 AM77 °FClear.5 mph90%29.98 "Hg10 mi
3:40 AM77 °FClear.6 mph90%29.98 "Hg10 mi
3:15 AM78 °FPassing clouds.7 mph89%29.98 "Hg10 mi
3:00 AM78 °FPassing clouds.7 mph87%29.98 "Hg10 mi
2:35 AM78 °FPassing clouds.7 mph88%29.99 "Hg10 mi
2:15 AM78 °FPassing clouds.7 mph86%29.99 "Hg10 mi
1:55 AM79 °FPassing clouds.7 mph85%29.99 "Hg10 mi
1:35 AM79 °FPassing clouds.7 mph85%29.99 "Hg10 mi
1:15 AM79 °FPassing clouds.6 mph85%30.00 "Hg10 mi
12:55 AM79 °FClear.6 mph86%30.00 "Hg10 mi
12:35 AM79 °FClear.5 mph86%29.99 "Hg10 mi
12:15 AM79 °FClear.5 mph85%29.99 "Hg10 mi
11:55 PM
Fri, Jul 29
80 °FClear.6 mph84%29.99 "Hg10 mi
11:40 PM80 °FClear.6 mph84%29.98 "Hg10 mi
11:15 PM81 °FClear.6 mph80%29.97 "Hg10 mi
10:55 PM81 °FClear.5 mph78%29.96 "Hg10 mi
10:35 PM82 °FClear.7 mph75%29.95 "Hg10 mi
10:20 PM82 °FClear.8 mph74%29.95 "Hg10 mi
9:55 PM82 °FClear.7 mph78%29.93 "Hg10 mi
9:35 PM83 °FClear.5 mph73%29.92 "Hg10 mi
9:15 PM83 °FSunny.6 mph72%29.92 "Hg10 mi
8:55 PM84 °FSunny.7 mph69%29.91 "Hg10 mi
8:35 PM85 °FSunny.7 mph64%29.91 "Hg10 mi
8:15 PM86 °FSunny.6 mph59%29.91 "Hg10 mi
Weather by CustomWeather, © 2016

See weather overviewHow to use our weather pages